Volver al catálogo

SL-16 DEB

ActivoLEO
NORAD 39301·DEBRIS·🇷🇺 Russia

Lanzado Dec 25, 1992 desde Baikonur Cosmodrome

Loading…

Próximos Pases (próximas 24 horas)

TLE

ActualizadoSource: Space-Track

Época: Sep 14, 2026, 13:15 UTC

1 39301U 92093JS  26257.55252854 -.00000144  00000-0 -52284-4 0  9993
2 39301  70.8841 356.1512 0032734 160.3507 199.8883 14.11722064674146

Sigue SL-16 DEB en tiempo real con AllMySat

Download on the App Store